User: anonymous
Location: Unspecified
(0.0000°N, 0.0000°E)
Time: 15:30:30
(UTC+02:00)
Language:

BREEZE-M DEB (TANK) - Orbit

View from above orbital plane
View from above orbital plane
View from above satellite
View from above satellite

Ground track
Ground track

The orbit data is extracted from the following two-line orbital elements,

1 33374U 08044B   14211.75100981  .00001730  00000-0  66862-3 0  6894
2 33374 049.4760 300.5914 5446018 174.5577 102.0274 04.84241181102842
Epoch (UTC): 30 July 2014 18:01:27
Eccentricity: 0.5446018
inclination: 49.4760°
perigee height: 342 km
apogee height: 16417 km
right ascension of ascending node: 300.5914°
argument of perigee: 174.5577°
revolutions per day: 4.84241181
mean anomaly at epoch: 102.0274°
orbit number at epoch: 10284

The dashed part of the orbit path shows where the satellite is in the earth's shadow,  

DLR